TimeEST,TemperatureF,Dew PointF,Humidity,Sea Level PressureIn,VisibilityMPH,Wind Direction,Wind SpeedMPH,Gust SpeedMPH,PrecipitationIn,Events,Conditions,WindDirDegrees,DateUTC
12:51 AM,3.0,-7.1,63,30.63,10.0,WSW,3.5,-,N/A,,Clear,250,2014-01-24 05:51:00
1:51 AM,1.0,-5.1,75,30.64,10.0,South,3.5,-,N/A,,Clear,190,2014-01-24 06:51:00
2:51 AM,-0.9,-5.1,83,30.66,10.0,SSW,4.6,-,N/A,,Clear,200,2014-01-24 07:51:00
3:51 AM,-0.9,-6.0,79,30.68,10.0,SSW,4.6,-,N/A,,Clear,210,2014-01-24 08:51:00
4:51 AM,-0.9,-7.1,75,30.67,10.0,SSW,4.6,-,N/A,,Clear,210,2014-01-24 09:51:00
5:51 AM,-2.0,-7.1,79,30.66,10.0,SSW,5.8,-,N/A,,Clear,200,2014-01-24 10:51:00
6:51 AM,-2.0,-7.1,79,30.66,10.0,SSW,6.9,-,N/A,,Clear,210,2014-01-24 11:51:00
7:51 AM,-2.0,-7.1,79,30.64,10.0,SSW,5.8,-,N/A,,Clear,200,2014-01-24 12:51:00
8:51 AM,-0.0,-6.0,76,30.63,10.0,SSW,6.9,-,N/A,,Clear,210,2014-01-24 13:51:00
9:51 AM,3.0,-2.9,76,30.62,10.0,SSW,6.9,-,N/A,,Clear,210,2014-01-24 14:51:00
10:51 AM,6.1,-2.0,69,30.60,10.0,SSW,10.4,-,0.00,,Scattered Clouds,210,2014-01-24 15:51:00
11:51 AM,9.0,-0.0,67,30.57,10.0,SSW,6.9,-,N/A,,Scattered Clouds,210,2014-01-24 16:51:00
12:51 PM,12.0,1.0,61,30.51,10.0,SSW,11.5,17.3,N/A,,Clear,200,2014-01-24 17:51:00
1:51 PM,15.1,1.9,56,30.45,10.0,South,12.7,18.4,N/A,,Clear,190,2014-01-24 18:51:00
2:51 PM,18.0,1.9,50,30.39,10.0,South,12.7,18.4,N/A,,Clear,180,2014-01-24 19:51:00
3:51 PM,19.0,1.0,46,30.33,10.0,South,11.5,18.4,N/A,,Clear,190,2014-01-24 20:51:00
4:51 PM,19.9,1.0,44,30.30,10.0,South,10.4,-,N/A,,Clear,190,2014-01-24 21:51:00
5:51 PM,19.0,-0.0,43,30.26,10.0,SSW,9.2,-,N/A,,Clear,200,2014-01-24 22:51:00
6:51 PM,19.0,1.0,46,30.20,10.0,South,6.9,-,N/A,,Clear,180,2014-01-24 23:51:00
7:51 PM,19.0,1.0,46,30.15,10.0,South,8.1,-,N/A,,Clear,190,2014-01-25 00:51:00
8:51 PM,18.0,1.0,48,30.11,10.0,South,10.4,-,N/A,,Clear,190,2014-01-25 01:51:00
9:51 PM,19.9,1.0,44,30.04,10.0,SSW,16.1,24.2,N/A,,Clear,200,2014-01-25 02:51:00
10:51 PM,21.0,1.0,42,29.99,10.0,SSW,17.3,25.3,N/A,,Clear,200,2014-01-25 03:51:00
11:51 PM,21.0,-0.9,38,29.96,10.0,SSW,11.5,23.0,N/A,,Clear,200,2014-01-25 04:51:00